Location: Namasale
(1.5000°N, 32.6167°E)
Time: 19:13:46
(UTC+00:00)

Vanguard 1 Rocket - Pass Details

Date: 19 April 2021
Orbit: 652 x 4224 km, 34.3° (Epoch: 10 May)

Event Time Altitude Azimuth Distance (km) Brightness Sun altitude
Rises 21:10:48 0° 279° (W) 5,041 - -74.0°
Reaches altitude 10° 21:13:51 10° 270° (W) 4,440 - -74.4°
Maximum altitude 21:26:02 39° 206° (SSW) 3,914 - -75.9°
Drops below altitude 10° 21:46:44 10° 143° (SE) 7,235 - -77.0°
Exits shadow 21:49:16 - 141° (SE) 7,675 11.9 -77.0°
Sets 21:53:52 0° 136° (SE) 8,447 12.2 -76.9°
